Montgomery, NY

5:48 PM EST on January 21, 2018 (GMT -0500)
Orange County

Weather History for KMGJ - September, 2012

Change the Weather History Date:

Wednesday, September 19, 2012

  Actual Average (KSWF) Record (KSWF)
Temperature  
Mean Temperature 58 °F -  
Max Temperature 68 °F 70 °F 84 °F (2005)
Min Temperature 46 °F 50 °F 34 °F (1973)
Degree Days  
Heating Degree Days 7    
Growing Degree Days 8 (Base 50)    
Moisture  
Dew Point 48 °F    
Average Humidity 67    
Maximum Humidity 94    
Minimum Humidity 36    
Precipitation  
Precipitation 0.06 in - - ()
Sea Level Pressure  
Sea Level Pressure 29.99 in    
Wind  
Wind Speed 7 mph (NW)    
Max Wind Speed 12 mph    
Max Gust Speed 22 mph    
Visibility 10 miles    
Events Rain    
Averages and records for this station are not official NWS values.
T = Trace of Precipitation, MM = Missing Value Source: NWS Daily Summary

Daily Weather History Graph

Daily Weather History Graph

Search for Another Location

Airport or City:

Trip Planner

Search our weather history database for the weather conditions in past years. The results will help you decide how hot, cold, wet, or windy it might be!

Date:

Astronomy

Sep. 19, 2012 Rise Set
Actual Time 6:41 AM EDT 6:58 PM EDT
Civil Twilight 6:14 AM EDT 7:26 PM EDT
Nautical Twilight 5:41 AM EDT 7:58 PM EDT
Astronomical Twilight 5:08 AM EDT 8:31 PM EDT
Moon 10:52 AM EDT (9/19) 9:01 PM EDT (9/19)
Length of Visible Light 13h 12m
Length of Day
12h 16m
Waxing Crescent, 17% of the Moon is Illuminated
Sep 19
Waxing Crescent
Sep 22
First Quarter
Sep 29
Full
Oct 8
Last Quarter
Oct 15
New

Hourly Weather History & Observations

Time (EDT) Temp. Dew Point Humidity Pressure Visibility Wind Dir Wind Speed Gust Speed Precip Events Conditions
12:37 AM 66.2 °F 64.4 °F 94% 29.72 in 10.0 mi SSW 8.1 mph - N/A   Overcast
12:54 AM 66.9 °F 64.9 °F 93% 29.71 in 10.0 mi SSW 5.8 mph - 0.00 in Rain Light Rain
1:19 AM 62.6 °F 59.0 °F 88% 29.74 in 6.0 mi WNW 11.5 mph 21.9 mph 0.05 in Rain Light Rain
1:54 AM 62.1 °F 57.0 °F 84% 29.77 in 10.0 mi WNW 6.9 mph - 0.06 in   Overcast
2:54 AM 59.0 °F 51.1 °F 75% 29.80 in 10.0 mi WNW 8.1 mph - 0.00 in   Overcast
3:54 AM 57.9 °F 48.9 °F 72% 29.83 in 10.0 mi Variable 5.8 mph - N/A   Overcast
4:54 AM 57.0 °F 48.9 °F 74% 29.86 in 10.0 mi WNW 9.2 mph - 0.00 in   Overcast
5:54 AM 57.0 °F 48.0 °F 72% 29.89 in 10.0 mi NW 8.1 mph - N/A   Overcast
6:54 AM 55.9 °F 46.9 °F 72% 29.91 in 10.0 mi NW 10.4 mph - N/A   Overcast
7:54 AM 57.0 °F 46.9 °F 69% 29.96 in 10.0 mi NW 4.6 mph - N/A   Mostly Cloudy
8:54 AM 57.9 °F 48.0 °F 70% 29.98 in 10.0 mi Variable 6.9 mph - N/A   Partly Cloudy
9:54 AM 61.0 °F 46.0 °F 58% 30.01 in 10.0 mi NW 5.8 mph - N/A   Clear
10:54 AM 63.0 °F 43.0 °F 48% 30.02 in 10.0 mi NNW 11.5 mph 18.4 mph N/A   Clear
11:54 AM 64.0 °F 43.0 °F 46% 30.04 in 10.0 mi NW 10.4 mph 16.1 mph N/A   Partly Cloudy
12:54 PM 66.0 °F 39.9 °F 38% 30.05 in 10.0 mi NW 9.2 mph - N/A   Clear
1:54 PM 66.9 °F 41.0 °F 39% 30.06 in 10.0 mi NNW 11.5 mph 16.1 mph N/A   Clear
2:54 PM 68.0 °F 41.0 °F 37% 30.07 in 10.0 mi NNW 9.2 mph 17.3 mph N/A   Partly Cloudy
3:54 PM 68.0 °F 39.9 °F 36% 30.08 in 10.0 mi NNW 10.4 mph - N/A   Clear
4:54 PM 66.9 °F 42.1 °F 40% 30.09 in 10.0 mi NNW 8.1 mph - N/A   Clear
5:54 PM 66.0 °F 42.1 °F 42% 30.11 in 10.0 mi NW 3.5 mph - N/A   Mostly Cloudy
6:54 PM 62.1 °F 45.0 °F 53% 30.12 in 10.0 mi NNW 3.5 mph - N/A   Mostly Cloudy
7:54 PM 55.9 °F 46.9 °F 72% 30.14 in 10.0 mi NE 5.8 mph - N/A   Clear
9:54 PM 51.1 °F 46.9 °F 86% 30.19 in 10.0 mi Calm Calm - N/A   Clear
10:54 PM 48.9 °F 46.0 °F 90% 30.20 in 10.0 mi Calm Calm - N/A   Clear
11:16 PM 48.2 °F 46.4 °F 93% 30.20 in 10.0 mi Calm Calm - 0.00 in Rain Light Rain
11:54 PM 46.9 °F 45.0 °F 93% 30.20 in 10.0 mi Calm Calm - 0.00 in   Clear